Flag for Canada Weather past 2 weeks in Annapolis County, Nova Scotia, Canada

Now
28 °F

Chilly.


Feels Like: 22 °F
Forecast: 29 / 36 °F
Wind: 5 mph from North

Location: Kejimkujik 1

Current Time: Dec 20, 2014 at 8:47:30 AM

Latest Report: Dec 20, 2014 at 8:00 AM


Visibility: N/A

Pressure: 30.18 "Hg

Humidity: 94%

Dew point: 26 °F

Location of Annapolis CountyLocation

Historic Weather in Annapolis County — Graph

°F

Annapolis County temperature yesterday

Maximum temperature yesterday: 33 °F (at 2:00 AM)
Minimum temperature yesterday: 30 °F (at 11:00 PM)
Average temperature yesterday: 31 °F

Past Weeks' High & Low Weather Summary

 TemperatureHumidityPressure
High56 °F (Dec 11, 12:00 AM)100% (Dec 6, 9:00 AM)30.78 "Hg (Dec 6, 9:00 AM)
Low11 °F (Dec 8, 8:00 AM)49% (Dec 5, 2:00 PM)29.35 "Hg (Dec 18, 6:00 AM)
Average33 °F91%30.01 "Hg
* Reported Dec 5 7:00 AM — Dec 20 7:00 AM, Annapolis County, Weather by CustomWeather, © 2014

Note: Actual official high and low records may vary slightly from our data, if they occured in-between our weather recording intervals... More about our weather records

Advertising

Annapolis County weather history for previous 24 hours

 ConditionsComfort  
Time TempWeatherWind HumidityBarometerVisibility
7:00 AM
Dec 20
29 °FChilly.5 mph88%30.16 "HgN/A
6:00 AM28 °FChilly.6 mph94%30.14 "HgN/A
5:00 AM28 °FChilly.3 mph95%30.10 "HgN/A
4:00 AM29 °FChilly.5 mph96%30.09 "HgN/A
3:00 AM29 °FChilly.6 mph96%30.07 "HgN/A
2:00 AM31 °FChilly.2 mph89%30.05 "HgN/A
1:00 AM30 °FChilly.3 mph96%30.02 "HgN/A
12:00 AM30 °FChilly.3 mph97%30.01 "HgN/A
11:00 PM
Dec 19
30 °FChilly.2 mph96%29.98 "HgN/A
10:00 PM31 °FChilly.3 mph90%29.96 "HgN/A
9:00 PM31 °FChilly.3 mph96%29.94 "HgN/A
8:00 PM30 °FChilly.3 mph97%29.91 "HgN/A
7:00 PM31 °FChilly.5 mph97%29.88 "HgN/A
6:00 PM31 °FChilly.5 mph96%29.85 "HgN/A
5:00 PM31 °FChilly.2 mph96%29.82 "HgN/A
4:00 PM31 °FChilly.3 mph95%29.80 "HgN/A
3:00 PM32 °FChilly.3 mph95%29.77 "HgN/A
2:00 PM31 °FChilly.3 mph96%29.75 "HgN/A
1:00 PM31 °FChilly.5 mph94%29.75 "HgN/A
12:00 PM31 °FChilly.5 mph93%29.74 "HgN/A
11:00 AM31 °FChilly.5 mph94%29.75 "HgN/A
10:00 AM31 °FChilly.5 mph95%29.73 "HgN/A
9:00 AM30 °FChilly.5 mph97%29.71 "HgN/A
8:00 AM30 °FChilly.3 mph98%29.68 "HgN/A
Weather by CustomWeather, © 2014

See weather overviewHow to use our weather pages